Volver al catálogo

STARLINK-33622

ActivoComunicacionesVLEO
NORAD 63066·PAYLOAD·🇺🇸 United States

Lanzado Feb 21, 2025 desde Cape Canaveral Space Force Station

Loading…

Próximos Pases (próximas 24 horas)

TLE

ActualizadoSource: CelesTrak SupGP

Época: Sep 14, 2026, 22:48 UTC

1 63066C 25035Q   26257.95048611 -.00059377  00000+0 -21509-2 0  2570
2 63066  43.0018 157.9680 0001294 273.7717 235.2829 15.27604084    14

Sigue STARLINK-33622 en tiempo real con AllMySat

Download on the App Store